ARIANE 44L DEB, 28575

Orbit data source: Space-Track

ARIANE 44L DEB, 28575 is space debris in HEO originally from a launch on Tue, 29 Oct 1991 UTC launched from the French Guiana (FRGUI). Debris objects in space refer to the collection of defunct objects orbiting the Earth. Examples of debris include non-operational satellites, rocket bodies, and fragments generated from explosions, collisions, or faulty payload assembly.

Loading next visibility...
Identifier
28575, 1991-075M
Orbit
HEO
Country
Flag of FRFR
Related business
Manufacturer
Unknown
Mission
Spacecraft
Bus & Motor
Unknown
Mass
Unknown
Launch date (UTC)
1991-10-29 (35 years ago)
Launch vehicle
Unknown
Launch site
French Guiana (FRGUI)
Object type
Payload
Rocket body
Debris
Shape & HBR
Unknown shape, 1.1 m
Radar Cross Section
Large (>1 m²)

Expand to show TLE details & history
Last TLE update: 2 days ago

TLE from 2 days ago
0 ARIANE 44L DEB
1 28575U 91075M   26171.35600177 -.00000093  00000-0  70169-3 0  9994
2 28575   6.2963   9.5389 6598500  37.0951 130.0355  2.82868905250571
Epoch: 2026-06-20T08:32Z
TLE epoch observation values (Epoch: 2026-06-20T08:32:38.552Z)
Latitude
-2.45507°
Longitude
175.65624°
Altitude
26,715.254 km
Speed
2.284 km/s
True Right ascension
14h 09m 33s
True Declination
-2° 27' 07"
Sunlit
Object was in daylight at epoch
Visualization orbit readout
Latitude
Unknown
Longitude
Unknown
Altitude
Unknown
Speed
Unknown
Apparent Right ascension
Unknown
Apparent Declination
Unknown
Sunlit
N/A
Visualization observer readout
Local Sidereal Time
23:07:56
Azimuth
Unknown
Elevation
Unknown
Doppler factor
Unknown
Orbital elements
Apogee altitude
28,684.675 km
Perigee altitude
807.22 km
Semi-major axis
21,124.085 km
Eccentricity
0.65985
Inclination
6.2963°
RAAN
9.5389°
Arg. of periapsis
37.0951°
True anomaly
165.84416°
Mean anomaly
130.0355°
Eccentric anomaly
149.32386°
Mean motion
0.70693 °/min
Orbital period
509.24 mins
BSTAR
0.00070169
Loading maneuver chart data...
Computing Atmospheric mass density...
Loading historical data...
Loading historical data...
Loading historical data...
Loading historical data...
Loading historical data...
Loading historical data...
Loading historical data...

Documentation

Showing up to 5 results
|